Decatur, IL

8:42 AM CDT on September 19, 2019 (GMT -0500)
Decatur

Weather History for KDEC - August, 2019

Change the Weather History Date:

Monday, August 19, 2019

  Actual Average Record
Temperature  
Mean Temperature 78 °F 74 °F  
Max Temperature 88 °F 84 °F 92 °F (2010)
Min Temperature 68 °F 63 °F 54 °F (2003)
Degree Days  
Heating Degree Days 0 0  
Month to date heating degree days 0 0  
Since 1 June heating degree days 5 18  
Since 1 July heating degree days 0 1  
Cooling Degree Days 13 9  
Month to date cooling degree days 186 175  
Year to date cooling degree days 911 824  
Since 1 June cooling degree days 798 737  
Growing Degree Days 28 (Base 50)    
Moisture  
Dew Point 69 °F    
Average Humidity 76    
Maximum Humidity 93    
Minimum Humidity 59    
Precipitation  
Precipitation 0.00 in 0.15 in 0.72 in (2002)
Month to date precipitation 3.73 1.95  
Year to date precipitation 28.20 24.61  
Sea Level Pressure  
Sea Level Pressure 29.98 in    
Wind  
Wind Speed 4 mph (SSE)    
Max Wind Speed 15 mph    
Max Gust Speed 22 mph    
Visibility 9 miles    
Events      
T = Trace of Precipitation, MM = Missing Value Source: NWS Daily Summary

Daily Weather History Graph

Daily Weather History Graph

Search for Another Location

Airport or City:

Astronomy

Aug. 19, 2019 Rise Set
Actual Time 6:11 AM CDT 7:46 PM CDT
Civil Twilight 5:42 AM CDT 8:15 PM CDT
Nautical Twilight 5:07 AM CDT 8:49 PM CDT
Astronomical Twilight 4:31 AM CDT 9:26 PM CDT
Moon 10:08 PM CDT 9:51 AM CDT
Length of Visible Light 14h 32m
Length of Day
13h 35m
Waning Gibbous, 85% of the Moon is Illuminated
Aug 19
Waning Gibbous
Aug 23
Last Quarter
Aug 30
New
Sep 5
First Quarter
Sep 13
Full

Hourly Weather History & Observations

Time (CDT) Temp. Heat Index Dew Point Humidity Pressure Visibility Wind Dir Wind Speed Gust Speed Precip Events Conditions
12:54 AM 73.0 °F - 69.1 °F 87% 29.93 in 10.0 mi SW 4.6 mph - N/A   Clear
1:54 AM 71.1 °F - 68.0 °F 90% 29.94 in 10.0 mi Calm Calm - N/A   Clear
2:54 AM 70.0 °F - 66.9 °F 90% 29.94 in 9.0 mi South 4.6 mph - N/A   Clear
3:50 AM 69.8 °F - 66.2 °F 88% 29.96 in 4.0 mi Calm Calm - N/A   Partly Cloudy
3:54 AM 69.1 °F - 66.0 °F 90% 29.95 in 8.0 mi Calm Calm - N/A   Clear
4:07 AM 68.0 °F - 64.9 °F 90% 29.97 in 2.5 mi SSE 6.9 mph - N/A   Partly Cloudy
4:14 AM 70.0 °F - 66.9 °F 90% 29.97 in 8.0 mi Calm Calm - N/A   Partly Cloudy
4:54 AM 70.0 °F - 66.9 °F 90% 29.96 in 10.0 mi Calm Calm - N/A   Overcast
5:54 AM 68.0 °F - 66.0 °F 93% 29.98 in 8.0 mi South 4.6 mph - N/A   Clear
6:54 AM 69.1 °F - 66.9 °F 93% 29.99 in 8.0 mi Calm Calm - N/A   Clear
7:54 AM 73.0 °F - 70.0 °F 90% 30.00 in 10.0 mi Calm Calm - N/A   Clear
8:54 AM 78.1 °F - 71.1 °F 79% 30.01 in 10.0 mi Calm Calm - N/A   Clear
9:54 AM 80.1 °F 83.2 °F 70.0 °F 71% 30.02 in 10.0 mi ESE 4.6 mph - N/A   Clear
10:54 AM 82.0 °F 85.9 °F 70.0 °F 67% 30.02 in 10.0 mi ESE 3.5 mph - N/A   Clear
11:54 AM 84.9 °F 90.1 °F 71.1 °F 63% 30.02 in 10.0 mi ENE 4.6 mph - N/A   Clear
12:54 PM 86.0 °F 92.2 °F 72.0 °F 63% 30.01 in 10.0 mi SE 6.9 mph - N/A   Partly Cloudy
1:54 PM 87.1 °F 92.8 °F 71.1 °F 59% 30.01 in 10.0 mi Variable 3.5 mph - N/A   Scattered Clouds
2:54 PM 87.1 °F 93.6 °F 72.0 °F 61% 30.00 in 10.0 mi SE 8.1 mph - N/A   Mostly Cloudy
3:54 PM 88.0 °F 94.7 °F 72.0 °F 59% 29.98 in 10.0 mi SSE 8.1 mph - N/A   Mostly Cloudy
4:54 PM 86.0 °F 93.0 °F 73.0 °F 65% 29.98 in 10.0 mi East 6.9 mph - N/A   Mostly Cloudy
5:54 PM 84.9 °F 92.1 °F 73.9 °F 69% 29.97 in 10.0 mi ESE 4.6 mph - N/A   Mostly Cloudy
6:54 PM 84.9 °F 91.4 °F 73.0 °F 67% 29.96 in 10.0 mi ESE 5.8 mph - N/A   Clear
7:54 PM 82.0 °F 86.3 °F 71.1 °F 69% 30.00 in 10.0 mi SSE 8.1 mph - N/A   Mostly Cloudy
8:54 PM 79.0 °F - 70.0 °F 74% 29.98 in 10.0 mi South 5.8 mph - N/A   Clear
9:54 PM 77.0 °F - 71.1 °F 82% 29.99 in 10.0 mi SW 4.6 mph - N/A   Clear
10:54 PM 73.9 °F - 69.1 °F 85% 30.01 in 10.0 mi SSE 3.5 mph - N/A   Clear
11:54 PM 73.9 °F - 66.9 °F 79% 30.01 in 10.0 mi SSW 4.6 mph - N/A   Clear